FW7258 Weather Reports


time (UTC)temp
F
wind
direction
speed
knots
gust
knots
rain 1hr
in
rain 24hr
in
rain mn
in
humidity
%
barometer
mb
20260506142133 48 307 3.5 5.2 0.00 1.13 0.47 79 1011.4
20260506141133 48 319 2.6 4.3 0.00 1.13 0.47 79 1011.6
20260506140131 48 349 1.7 3.5 0.00 1.13 0.47 80 1011.6
20260506135147 47 360 3.5 6.1 0.00 1.13 0.47 80 1011.2
20260506134232 47 302 3.5 7.8 0.00 1.13 0.47 81 1011.3
20260506134132 47 340 3.5 4.3 0.00 1.13 0.47 81 1011.3
20260506133132 47 333 2.6 5.2 0.00 1.13 0.47 82 1011.1
20260506132131 47 28 3.5 6.1 0.00 1.13 0.47 82 1011.0
20260506132032 47 8 0.9 2.6 0.00 1.13 0.47 82 1011.1
20260506131131 47 301 1.7 3.5 0.00 1.13 0.47 83 1010.9
20260506130133 47 298 1.7 4.3 0.00 1.13 0.47 83 1010.7
20260506125131 46 311 1.7 3.5 0.00 1.13 0.47 83 1010.5
20260506124231 46 337 3.5 5.2 0.00 1.13 0.47 83 1010.3
20260506124150 46 314 1.7 6.1 0.00 1.13 0.47 83 1010.3
20260506123131 46 360 5.2 7.8 0.00 1.13 0.47 84 1010.4
20260506122132 46 360 2.6 5.2 0.00 1.13 0.47 83 1010.4
20260506121132 46 341 1.7 2.6 0.00 1.13 0.47 83 1010.2
20260506120133 46 354 2.6 5.2 0.00 1.13 0.47 83 1010.1
20260506115231 46 328 3.5 5.2 0.00 1.13 0.47 84 1010.4
20260506114248 47 302 3.5 4.3 0.00 1.13 0.47 84 1010.1
20260506113233 46 4 2.6 3.5 0.00 1.13 0.47 84 1009.8
20260506112330 47 5 2.6 4.3 0.00 1.13 0.47 83 1009.8
20260506111332 46 340 0.0 0.0 0.01 1.13 0.47 83 1009.9
20260506110349 46 356 2.6 4.3 0.01 1.13 0.47 84 1009.5
20260506104334 46 15 3.5 5.2 0.02 1.13 0.47 84 1008.8
20260506103432 46 3 3.5 4.3 0.03 1.13 0.47 84 1008.7
20260506102432 46 7 1.7 3.5 0.04 1.13 0.47 84 1008.4
20260506101431 46 14 3.5 5.2 0.04 1.12 0.46 83 1008.2
20260506100433 46 20 3.5 5.2 0.04 1.12 0.46 84 1008.8
20260506095432 46 22 2.6 3.5 0.04 1.12 0.45 84 1009.2
20260506094432 46 1 2.6 5.2 0.04 1.11 0.45 84 1009.4
20260506093433 45 22 4.3 5.2 0.03 1.10 0.44 84 1009.1
20260506093333 45 20 2.6 3.5 0.03 1.10 0.44 83 1009.1
20260506092332 45 13 4.3 5.2 0.04 1.09 0.42 84 1009.1
20260506091348 45 2 2.6 4.3 0.05 1.08 0.42 84 1009.3
20260506090349 45 4 5.2 7.8 0.07 1.08 0.42 83 1008.8
20260506084332 45 355 5.2 7.0 0.11 1.07 0.41 83 1008.8
20260506083333 45 25 4.3 6.1 0.13 1.07 0.40 84 1008.7
20260506082332 45 21 1.7 3.5 0.13 1.05 0.39 84 1009.1
20260506080530 46 351 6.1 8.7 0.13 1.01 0.35 84 1008.8
20260506072731 47 7 4.3 7.0 0.11 0.92 0.26 84 1008.4
20260506071732 47 340 2.6 7.0 0.10 0.90 0.24 83 1008.5
20260506070731 47 14 3.5 3.5 0.11 0.89 0.23 84 1008.4
20260506061831 47 21 4.3 5.2 0.06 0.80 0.14 84 1008.7
20260506060832 48 7 4.3 5.2 0.05 0.78 0.12 84 1008.8
20260506043034 49 10 2.6 3.5 0.08 0.70 0.04 83 1009.7
20260506042033 49 4 4.3 6.1 0.08 0.69 0.02 84 1009.8
20260506041033 49 8 3.5 4.3 0.07 0.67 0.01 84 1009.8
20260506040044 50 26 5.2 7.8 0.07 0.66 0.00 84 1009.8
20260506035133 50 24 4.3 7.0 0.09 0.65 0.65 84 1009.9
20260506033234 50 58 3.5 4.3 0.09 0.62 0.62 83 1009.9
20260506033134 50 37 2.6 3.5 0.09 0.62 0.62 83 1010.1
20260506031233 50 18 1.7 3.5 0.16 0.60 0.60 83 1010.3
20260506030250 50 22 0.9 0.9 0.17 0.59 0.59 83 1010.9
20260506030133 50 360 0.0 1.7 0.17 0.59 0.59 83 1011.0
20260506025232 50 297 1.7 3.5 0.14 0.56 0.56 82 1011.0
20260506024251 50 2 1.7 3.5 0.14 0.54 0.54 84 1010.5
20260506023335 50 360 2.6 3.5 0.19 0.53 0.53 83 1010.0
20260506023234 50 345 2.6 3.5 0.19 0.53 0.53 84 1010.0
20260506022234 50 8 3.5 5.2 0.14 0.48 0.48 83 1009.9
20260506021235 51 356 2.6 3.5 0.12 0.44 0.44 83 1010.1
20260506020233 50 12 2.6 4.3 0.11 0.42 0.42 84 1009.9
20260506015233 51 13 6.1 7.0 0.12 0.42 0.42 83 1009.6
20260506014232 51 356 2.6 4.3 0.10 0.40 0.40 83 1009.7
20260506013251 51 360 1.7 2.6 0.04 0.34 0.34 83 1009.7
20260506012334 51 5 1.7 3.5 0.04 0.34 0.34 82 1009.6
20260506005433 52 6 1.7 4.3 0.04 0.30 0.30 83 1009.5
20260506003434 52 345 2.6 3.5 0.10 0.30 0.30 83 1009.3
20260506002435 52 337 1.7 4.3 0.24 0.30 0.30 83 1009.4
20260506001433 52 359 3.5 5.2 0.30 0.30 0.30 83 1009.4
20260506000434 52 22 2.6 3.5 0.28 0.28 0.28 82 1009.3
20260505235531 52 22 1.7 2.6 0.27 0.27 0.26 82 1009.6
20260505234535 53 9 1.7 3.5 0.24 0.24 0.24 81 1009.8
20260505232534 55 338 5.2 8.7 0.08 0.08 0.06 79 1010.0
20260505231536 56 355 5.2 7.0 0.00 0.00 0.00 78 1008.9
20260505230535 59 360 3.5 4.3 0.00 0.00 0.00 79 1008.9
20260505224537 59 315 2.6 4.3 0.00 0.00 0.00 78 1009.0
20260505223533 59 315 1.7 2.6 0.00 0.00 0.00 78 1009.1
20260505222534 59 21 1.7 3.5 0.00 0.00 0.00 78 1009.2
20260505221534 60 339 1.7 2.6 0.00 0.00 0.00 78 1009.3
20260505215634 60 322 1.7 4.3 0.00 0.00 0.00 77 1009.3
20260505214634 60 19 2.6 5.2 0.00 0.00 0.00 77 1009.3
20260505213732 61 304 1.7 3.5 0.00 0.00 0.00 75 1009.3
20260505212831 62 339 5.2 8.7 0.00 0.00 0.00 74 1009.2
20260505212732 62 322 6.1 8.7 0.00 0.00 0.00 73 1009.3
20260505211734 62 315 0.0 0.9 0.00 0.00 0.00 73 1009.0
20260505210734 63 225 0.0 0.0 0.00 0.00 0.00 70 1009.0
20260505205734 64 325 0.0 0.9 0.00 0.00 0.00 67 1009.0
20260505204750 65 244 2.6 6.1 0.00 0.00 0.00 64 1009.3
20260505203832 65 338 0.0 0.9 0.00 0.00 0.00 63 1008.7
20260505202848 65 247 0.0 0.0 0.00 0.00 0.00 63 1008.8
20260505201933 66 292 0.0 1.7 0.00 0.00 0.00 62 1008.7
20260505200933 65 180 0.9 0.9 0.00 0.00 0.00 62 1008.7
20260505195932 65 202 0.0 0.9 0.00 0.00 0.00 62 1008.8
20260505194934 65 266 0.9 4.3 0.00 0.00 0.00 62 1009.0
20260505194032 66 208 2.6 5.2 0.00 0.00 0.00 61 1009.0
20260505193051 66 76 0.0 2.6 0.00 0.00 0.00 61 1009.0
20260505192033 65 261 0.9 2.6 0.00 0.00 0.00 62 1009.2
20260505191035 65 231 1.7 4.3 0.00 0.00 0.00 62 1009.3
20260505190050 65 177 1.7 4.3 0.00 0.00 0.00 62 1009.7
20260505185148 65 228 2.6 7.0 0.00 0.00 0.00 62 1009.8
20260505184234 65 278 1.7 4.3 0.00 0.00 0.00 60 1010.0
20260505183331 65 174 3.5 7.0 0.00 0.00 0.00 60 1009.9
20260505182336 66 226 3.5 7.8 0.00 0.00 0.00 59 1009.7
20260505181331 66 296 0.9 2.6 0.00 0.00 0.00 58 1009.4
20260505180333 67 288 1.7 4.3 0.00 0.00 0.00 57 1009.4
20260505174334 67 277 2.6 4.3 0.00 0.00 0.00 56 1009.2
20260505173334 67 274 1.7 3.5 0.00 0.00 0.00 56 1009.1
20260505172433 67 304 2.6 7.8 0.00 0.00 0.00 58 1009.1
20260505171432 67 223 1.7 6.1 0.00 0.00 0.00 58 1009.0
20260505171334 67 175 2.6 4.3 0.00 0.00 0.00 58 1009.0
20260505170334 67 220 3.5 6.1 0.00 0.00 0.00 57 1009.0
20260505165348 69 204 3.5 4.3 0.00 0.00 0.00 55 1009.0
20260505164332 69 226 3.5 5.2 0.00 0.00 0.00 55 1008.9
20260505164233 69 187 4.3 7.8 0.00 0.00 0.00 55 1008.8
20260505163234 69 218 5.2 11.3 0.00 0.00 0.00 54 1008.8
20260505162332 69 176 7.8 13.0 0.00 0.00 0.00 55 1008.6
20260505161431 69 201 2.6 5.2 0.00 0.00 0.00 54 1008.6
20260505160434 69 234 3.5 7.0 0.00 0.00 0.00 55 1008.5
20260505152531 66 277 2.6 7.0 0.00 0.00 0.00 56 1008.8
20260505151533 67 238 7.8 18.2 0.00 0.00 0.00 56 1008.6
20260505150533 66 233 2.6 4.3 0.00 0.00 0.00 56 1008.6